Other Surface Observations
Issued by NWS Jacksonville, FL

Home | Current Version | Previous Version | Text Only | Print | Product List | Glossary On
Versions: 1 2 3 4 5 6 7 8 9 10 11 12 13 14 15 16 17 18 19 20 21 22 23 24 25 26 27 28 29 30 31 32 33 34 35 36 37 38 39 40 41 42 43 44 45 46 47 48 49 50
000
SXUS52 KJAX 291913
OSOJAX
OTHER SURFACE OBSERVATIONS
NATIONAL WEATHER SERVICE JACKSONVILLE FL
300 PM EDT SAT AUG 29 2015

FLZ020>025-030>033-035>038-040-292000-
...FLORIDA...

CITY           SKY/WX    TMP DP  RH WIND       PRES   REMARKS
CECIL FIELD    LGT RAIN  81  75  83 NE12      30.09F
HERLONG FIELD  NOT AVBL
FERNANDINA BCH NOT AVBL
LAKE CITY      MOCLDY    82  77  83 NE5       30.08F
JUNIPER SPGS   NOT AVBL
BUNNELL        NOT AVBL
KEYSTONE HGTS  FAIR      88  75  66 E5        30.08F
$$

GAZ132>136-149>154-162>166-292000-
...GEORGIA...

CITY           SKY/WX    TMP DP  RH WIND       PRES   REMARKS
JESUP          MOCLDY    88  75  66 E9        30.11F
HOMERVILLE     RAIN      81  77  89 NE3       30.09F
SWAINSBORO     FAIR      86  70  58 NE9       30.15F
CORDELE        NOT AVBL
EASTMAN        MOCLDY    81  78  91 E9        30.15F
$$

PLEASE NOTE:  THESE OBSERVATIONS ARE NOT QUALITY CONTROLLED AND MAY
NOT BE AVAILABLE AT ALL TIMES.
$$



USA.gov is the U.S. government's official web portal to all federal, state and local government web resources and services.